This demonstration page uses our WeatherBlox Daily Observations layout. Learn more.

Left ArrowRight Arrow

Hourly Observations for February 14, 2022

Temp ( °F °C ) Dew Point ( °F °C ) Humidity (%) Winds ( mph kmh ) Pressure ( in mb ) Visibility ( mi km ) Precip ( " mm )
12:15 am 00:15 Clear 33 0.5 16 -8.8 50 50 WNW 8 13 30.18 1022 10 16 0.00 0.00
12:35 am 00:35 Clear 32 0 17 -8.5 53 53 WNW 9 15 30.21 1023 10 16 0.00 0.00
12:55 am 00:55 Clear 33 0.5 18 -7.9 54 54 NNW 9 15 30.20 1023 10 16 0.00 0.00
1:15 am 01:15 Clear 37 2.5 18 -7.7 47 47 NNW 13 20 30.19 1022 10 16 0.00 0.00
1:35 am 01:35 Clear 36 2.1 18 -8 48 48 NNW 12 19 30.21 1023 10 16 0.00 0.00
1:55 am 01:55 Clear 35 1.8 18 -8 49 49 NNW 10 17 30.21 1023 10 16 0.00 0.00
2:15 am 02:15 Clear 34 1.2 18 -8 51 51 NNW 10 17 30.21 1023 10 16 0.00 0.00
2:35 am 02:35 Clear 33 0.8 18 -7.8 53 53 NW 9 15 30.23 1024 10 16 0.00 0.00
2:55 am 02:55 Clear 31 -0.3 18 -8 56 56 NW 7 11 30.25 1024 10 16 0.00 0.00
3:15 am 03:15 Clear 30 -1 17 -8.1 59 59 NW 8 13 30.25 1025 10 16 0.00 0.00
3:35 am 03:35 Clear 32 -0.2 18 -8 56 56 NW 7 11 30.25 1024 10 16 0.00 0.00
3:55 am 03:55 Clear 29 -1.5 17 -8.4 60 60 NW 8 13 30.27 1025 10 16 0.00 0.00
4:15 am 04:15 Clear 28 -2.4 17 -8.5 63 63 WNW 6 9 30.28 1025 10 16 0.00 0.00
4:35 am 04:35 Clear 28 -2 17 -8.2 63 63 WNW 6 9 30.28 1026 10 16 0.00 0.00
4:55 am 04:55 Clear 27 -3 17 -8.6 66 66 NW 8 13 30.29 1026 10 16 0.00 0.00
5:15 am 05:15 Clear 26 -3.6 16 -9 67 67 NW 7 11 30.31 1026 10 16 0.00 0.00
5:35 am 05:35 Clear 29 -1.7 18 -7.6 64 64 N 7 11 30.29 1026 10 16 0.00 0.00
5:55 am 05:55 Clear 32 0 20 -6.7 61 61 N 12 19 30.29 1026 10 16 0.00 0.00
6:15 am 06:15 Clear 32 0 19 -7 60 60 N 10 17 30.30 1026 10 16 0.00 0.00
6:35 am 06:35 Clear 32 -0.2 19 -7 61 61 N 7 11 30.31 1026 10 16 0.00 0.00
6:55 am 06:55 Clear 30 -1.1 19 -7.2 64 64 NNW 7 11 30.32 1027 10 16 0.00 0.00
7:15 am 07:15 Clear 30 -1 19 -7 64 64 N 10 17 30.32 1027 10 16 0.00 0.00
7:35 am 07:35 Sunny 27 -2.7 19 -7.3 71 71 N 6 9 30.35 1028 10 16 0.00 0.00
7:55 am 07:55 Sunny 30 -1.2 19 -7 65 65 N 5 7 30.34 1027 10 16 0.00 0.00
8:15 am 08:15 Sunny 29 -1.9 19 -7.1 68 68 N 6 9 30.34 1028 10 16 0.00 0.00
8:35 am 08:35 Sunny 30 -1.2 20 -6.7 67 67 N 5 7 30.34 1027 10 16 0.00 0.00
8:55 am 08:55 Sunny 32 0.1 21 -5.9 64 64 N 7 11 30.32 1027 10 16 0.00 0.00
9:15 am 09:15 Sunny 34 1.1 22 -5.7 61 61 N 10 17 30.33 1027 10 16 0.00 0.00
9:35 am 09:35 Sunny 35 1.8 22 -5.5 59 59 NNE 12 19 30.33 1027 10 16 0.00 0.00
9:55 am 09:55 Sunny 37 2.6 23 -5.1 57 57 ENE 9 15 30.33 1027 10 16 0.00 0.00
10:15 am 10:15 Sunny 38 3.2 23 -5 55 55 NNE 10 17 30.34 1027 10 16 0.00 0.00
10:35 am 10:35 Sunny 39 3.9 23 -5.1 52 52 NE 7 11 30.32 1027 10 16 0.00 0.00
10:55 am 10:55 Sunny 40 4.2 22 -5.6 49 49 NNE 6 9 30.33 1027 10 16 0.00 0.00
11:15 am 11:15 Sunny 40 4.6 22 -5.5 48 48 ENE 5 7 30.32 1027 10 16 0.00 0.00
11:35 am 11:35 Sunny 41 5 22 -5.8 46 46 NNE 7 11 30.32 1027 10 16 0.00 0.00
11:55 am 11:55 Sunny 42 5.3 21 -5.9 45 45 Calm 30.31 1026 10 16 0.00 0.00
12:15 pm 12:15 Sunny 42 5.5 21 -6 44 44 E 3 6 30.29 1026 10 16 0.00 0.00
12:35 pm 12:35 Sunny 43 6.3 21 -6 41 41 SE 7 11 30.27 1025 10 16 0.00 0.00
12:55 pm 12:55 Sunny 44 6.5 20 -6.8 38 38 S 3 6 30.25 1025 10 16 0.00 0.00
1:15 pm 13:15 Sunny 45 7.1 19 -7 36 36 SE 6 9 30.24 1024 10 16 0.00 0.00
1:35 pm 13:35 Sunny 46 7.5 19 -7.2 35 35 SSE 3 6 30.23 1024 10 16 0.00 0.00
1:55 pm 13:55 Sunny 46 7.7 19 -7 35 35 ESE 7 11 30.20 1023 10 16 0.00 0.00
2:15 pm 14:15 Sunny 47 8.3 19 -7.5 32 32 ESE 5 7 30.18 1022 10 16 0.00 0.00
2:35 pm 14:35 Sunny 47 8.6 19 -7.5 31 31 SSE 5 7 30.17 1022 10 16 0.00 0.00
2:55 pm 14:55 Sunny 48 9.1 19 -7.3 31 31 SSE 6 9 30.15 1021 10 16 0.00 0.00
3:15 pm 15:15 Sunny 49 9.4 19 -7.1 31 31 SSE 9 15 30.14 1021 10 16 0.00 0.00
3:35 pm 15:35 Sunny 49 9.5 19 -7.4 30 30 SSE 8 13 30.13 1020 10 16 0.00 0.00
3:55 pm 15:55 Sunny 49 9.5 19 -7.5 30 30 SE 12 19 30.13 1020 10 16 0.00 0.00
4:15 pm 16:15 Sunny 49 9.5 19 -7.5 30 30 SSE 12 19 30.11 1020 10 16 0.00 0.00
4:35 pm 16:35 Sunny 49 9.6 19 -7.5 29 29 SSE 13 20 30.11 1020 10 16 0.00 0.00
4:55 pm 16:55 Sunny 49 9.5 19 -7.5 30 30 SSE 13 20 30.10 1019 10 16 0.00 0.00
5:15 pm 17:15 Sunny 48 9.1 19 -7.5 30 30 SSE 12 19 30.10 1019 10 16 0.00 0.00
5:35 pm 17:35 Sunny 47 8.3 18 -7.6 32 32 SE 10 17 30.10 1019 10 16 0.00 0.00
5:55 pm 17:55 Sunny 44 6.8 17 -8.2 34 34 SE 9 15 30.11 1020 10 16 0.00 0.00
6:15 pm 18:15 Clear 40 4.2 16 -9.1 38 38 SE 7 11 30.13 1020 10 16 0.00 0.00
6:35 pm 18:35 Clear 37 2.8 15 -9.6 40 40 SE 7 11 30.14 1021 10 16 0.00 0.00
6:55 pm 18:55 Clear 34 1.2 14 -10.1 43 43 SE 7 11 30.16 1021 10 16 0.00 0.00
7:15 pm 19:15 Clear 32 0.1 13 -10.4 46 46 SE 8 13 30.16 1021 10 16 0.00 0.00
7:35 pm 19:35 Clear 32 -0.2 13 -10.3 47 47 SSE 9 15 30.17 1022 10 16 0.00 0.00
7:55 pm 19:55 Clear 30 -1 13 -10.6 49 49 SE 8 13 30.17 1022 10 16 0.00 0.00
8:15 pm 20:15 Clear 30 -1.2 13 -10.4 50 50 SE 7 11 30.18 1022 10 16 0.00 0.00
8:35 pm 20:35 Clear 29 -1.6 13 -10.4 52 52 SSE 6 9 30.18 1022 10 16 0.00 0.00
8:55 pm 20:55 Clear 31 -0.3 14 -9.8 49 49 SSE 6 9 30.17 1022 10 16 0.00 0.00
9:15 pm 21:15 Clear 29 -1.7 13 -10.4 52 52 SSE 6 9 30.17 1022 10 16 0.00 0.00
9:35 pm 21:35 Clear 28 -2.3 13 -10.5 54 54 SE 6 9 30.18 1022 10 16 0.00 0.00
9:55 pm 21:55 Clear 24 -4.5 11 -11.7 58 58 ESE 8 13 30.20 1023 10 16 0.00 0.00
10:15 pm 22:15 Clear 28 -2 14 -10 55 55 SE 9 15 30.17 1022 10 16 0.00 0.00
10:35 pm 22:35 Clear 27 -2.9 13 -10.6 56 56 SE 10 17 30.17 1022 10 16 0.00 0.00
10:55 pm 22:55 Clear 26 -3.2 13 -10.8 56 56 SE 10 17 30.17 1022 10 16 0.00 0.00
11:15 pm 23:15 Clear 26 -3.1 13 -10.7 56 56 SE 10 17 30.14 1021 10 16 0.00 0.00
11:35 pm 23:35 Clear 26 -3.2 12 -11 55 55 SE 10 17 30.14 1021 10 16 0.00 0.00
11:55 pm 23:55 Clear 26 -3.2 13 -10.6 57 57 SE 9 15 30.14 1021 10 16 0.00 0.00

Powered by AerisWeather